GIA610 WIII-WAAA

Flight info

Callsign GIA610
Flight time N/A
Altitude 35000
Route CA T5 BIMAK
Aircraft B738/M-SDE2E3FGHIRWY/LB1

Departure

Time N/A
Airport Soekarno-Hatta International Airport (WIII)

Arrival

Time 2026-04-21 01:29
Airport Sultan Hasanuddin International Airport (WAAA)
Time Latitude Longitude Altitude Speed Heading
2026-04-21 00:43 -5.75739 115.46508 36892 ft 448 kts 82°
2026-04-21 00:43 -5.74861 115.52705 36891 ft 448 kts 82°
2026-04-21 00:44 -5.73976 115.58890 36889 ft 448 kts 82°
2026-04-21 00:44 -5.73087 115.65077 36892 ft 448 kts 82°
2026-04-21 00:45 -5.71764 115.74363 36893 ft 448 kts 82°
2026-04-21 00:45 -5.70876 115.80553 36889 ft 448 kts 83°
2026-04-21 00:46 -5.69988 115.86748 36893 ft 448 kts 83°
2026-04-21 00:46 -5.69093 115.92946 36892 ft 449 kts 82°
2026-04-21 00:47 -5.68198 115.99151 36894 ft 449 kts 83°
2026-04-21 00:47 -5.67314 116.05312 36894 ft 449 kts 82°
2026-04-21 00:48 -5.66419 116.11527 36895 ft 450 kts 82°
2026-04-21 00:48 -5.65526 116.17739 36897 ft 450 kts 82°
2026-04-21 00:49 -5.64631 116.23959 36893 ft 450 kts 82°
2026-04-21 00:49 -5.63733 116.30175 36894 ft 450 kts 82°
2026-04-21 00:50 -5.62832 116.36399 36895 ft 450 kts 82°
2026-04-21 00:50 -5.61934 116.42618 36899 ft 450 kts 82°
2026-04-21 00:51 -5.61033 116.48844 36895 ft 450 kts 82°
2026-04-21 00:51 -5.60128 116.55065 36898 ft 450 kts 82°
2026-04-21 00:52 -5.59230 116.61282 36896 ft 450 kts 82°
2026-04-21 00:52 -5.58331 116.67504 36896 ft 450 kts 82°
2026-04-21 00:53 -5.57427 116.73719 36897 ft 450 kts 82°
2026-04-21 00:53 -5.56519 116.79938 36895 ft 450 kts 82°
2026-04-21 00:54 -5.55621 116.86117 36899 ft 450 kts 82°
2026-04-21 00:54 -5.54717 116.92333 36898 ft 450 kts 82°
2026-04-21 00:55 -5.53812 116.98549 36897 ft 450 kts 82°
2026-04-21 00:55 -5.52906 117.04767 36899 ft 450 kts 82°
2026-04-21 00:56 -5.52047 117.10993 36896 ft 450 kts 83°
2026-04-21 00:56 -5.51285 117.17225 36897 ft 450 kts 83°
2026-04-21 00:57 -5.50526 117.23463 36894 ft 450 kts 83°
2026-04-21 00:57 -5.49755 117.29685 36751 ft 452 kts 83°
2026-04-21 00:58 -5.49362 117.32830 36256 ft 454 kts 83°
2026-04-21 00:58 -5.48970 117.35967 35681 ft 453 kts 83°
2026-04-21 00:58 -5.48575 117.39108 35080 ft 453 kts 83°
2026-04-21 00:58 -5.48182 117.42246 34449 ft 454 kts 83°
2026-04-21 00:59 -5.47786 117.45401 33776 ft 456 kts 83°
2026-04-21 00:59 -5.47389 117.48565 33043 ft 458 kts 83°
2026-04-21 00:59 -5.46992 117.51732 32362 ft 458 kts 83°
2026-04-21 00:59 -5.46594 117.54898 31880 ft 454 kts 83°
2026-04-21 01:00 -5.46206 117.57988 31392 ft 451 kts 83°
2026-04-21 01:00 -5.45815 117.61095 30906 ft 447 kts 83°
2026-04-21 01:00 -5.45427 117.64183 30422 ft 445 kts 83°
2026-04-21 01:00 -5.45041 117.67253 29940 ft 442 kts 83°
2026-04-21 01:01 -5.44657 117.70304 29382 ft 439 kts 83°
2026-04-21 01:01 -5.44277 117.73328 28863 ft 435 kts 83°
2026-04-21 01:01 -5.43899 117.76325 28372 ft 431 kts 83°
2026-04-21 01:01 -5.43524 117.79298 27884 ft 427 kts 83°
2026-04-21 01:02 -5.43153 117.82244 27415 ft 424 kts 83°
2026-04-21 01:02 -5.42784 117.85167 26939 ft 421 kts 83°
2026-04-21 01:02 -5.42418 117.88071 26472 ft 418 kts 83°
2026-04-21 01:02 -5.42054 117.90955 26007 ft 415 kts 83°
2026-04-21 01:03 -5.41692 117.93819 25523 ft 413 kts 83°
2026-04-21 01:03 -5.41332 117.96670 25051 ft 412 kts 83°
2026-04-21 01:03 -5.40972 117.99518 24580 ft 410 kts 84°
2026-04-21 01:03 -5.40614 118.02349 24111 ft 409 kts 84°
2026-04-21 01:04 -5.40257 118.05176 23646 ft 408 kts 84°
2026-04-21 01:04 -5.39901 118.07992 23125 ft 406 kts 84°
2026-04-21 01:04 -5.39544 118.10788 22792 ft 400 kts 83°
2026-04-21 01:04 -5.39003 118.13496 22650 ft 390 kts 77°
2026-04-21 01:05 -5.38295 118.16116 22524 ft 393 kts 75°
2026-04-21 01:05 -5.37516 118.18785 22401 ft 402 kts 75°
2026-04-21 01:05 -5.36724 118.21487 22246 ft 404 kts 75°
2026-04-21 01:05 -5.35951 118.24181 22100 ft 400 kts 75°
2026-04-21 01:06 -5.35209 118.26825 21957 ft 398 kts 75°
2026-04-21 01:06 -5.34475 118.29491 21817 ft 395 kts 76°
2026-04-21 01:06 -5.33752 118.32148 21679 ft 394 kts 76°
2026-04-21 01:06 -5.33037 118.34796 21536 ft 393 kts 76°
2026-04-21 01:07 -5.32327 118.37436 21404 ft 392 kts 76°
2026-04-21 01:07 -5.31618 118.40073 21264 ft 391 kts 76°
2026-04-21 01:07 -5.30909 118.42711 21120 ft 391 kts 76°
2026-04-21 01:07 -5.30201 118.45344 20988 ft 391 kts 76°
2026-04-21 01:08 -5.29492 118.47979 20848 ft 391 kts 76°
2026-04-21 01:08 -5.28783 118.50612 20705 ft 391 kts 76°
2026-04-21 01:08 -5.28074 118.53245 20567 ft 391 kts 76°
2026-04-21 01:08 -5.27365 118.55876 20427 ft 390 kts 76°
2026-04-21 01:09 -5.26657 118.58503 20293 ft 390 kts 76°
2026-04-21 01:09 -5.25951 118.61121 20156 ft 389 kts 76°
2026-04-21 01:09 -5.25247 118.63735 20017 ft 388 kts 76°
2026-04-21 01:09 -5.24545 118.66340 19875 ft 386 kts 76°
2026-04-21 01:10 -5.23844 118.68939 19733 ft 385 kts 76°
2026-04-21 01:10 -5.23147 118.71525 19607 ft 383 kts 76°
2026-04-21 01:10 -5.22452 118.74103 19467 ft 382 kts 76°
2026-04-21 01:10 -5.21759 118.76670 19334 ft 381 kts 76°
2026-04-21 01:11 -5.21069 118.79230 19199 ft 380 kts 75°
2026-04-21 01:11 -5.20389 118.81750 19065 ft 379 kts 75°
2026-04-21 01:11 -5.19702 118.84296 18934 ft 377 kts 75°
2026-04-21 01:11 -5.19016 118.86833 18803 ft 377 kts 75°
2026-04-21 01:12 -5.18334 118.89362 18670 ft 376 kts 75°
2026-04-21 01:12 -5.17652 118.91887 18522 ft 372 kts 75°
2026-04-21 01:12 -5.16977 118.94377 18220 ft 369 kts 75°
2026-04-21 01:12 -5.16308 118.96851 17766 ft 367 kts 75°
2026-04-21 01:13 -5.15642 118.99316 17265 ft 366 kts 75°
2026-04-21 01:13 -5.14977 119.01777 16808 ft 364 kts 75°
2026-04-21 01:13 -5.14297 119.04213 16388 ft 362 kts 71°
2026-04-21 01:13 -5.13255 119.06500 15972 ft 360 kts 60°
2026-04-21 01:14 -5.11814 119.08539 15561 ft 358 kts 49°
2026-04-21 01:14 -5.10105 119.10348 15156 ft 356 kts 46°
2026-04-21 01:14 -5.08365 119.12108 14757 ft 354 kts 45°
2026-04-21 01:14 -5.06628 119.13850 14368 ft 352 kts 45°
2026-04-21 01:15 -5.04903 119.15586 13989 ft 350 kts 46°
2026-04-21 01:15 -5.03195 119.17315 13598 ft 348 kts 46°
2026-04-21 01:15 -5.01500 119.19038 13182 ft 346 kts 46°
2026-04-21 01:15 -4.99822 119.20751 12797 ft 343 kts 46°
2026-04-21 01:16 -4.98160 119.22450 12402 ft 340 kts 46°
2026-04-21 01:16 -4.96509 119.24141 12011 ft 338 kts 46°
2026-04-21 01:16 -4.94877 119.25812 11745 ft 332 kts 46°
2026-04-21 01:16 -4.93293 119.27435 11684 ft 320 kts 46°
2026-04-21 01:17 -4.91773 119.28992 11596 ft 308 kts 46°
2026-04-21 01:17 -4.90314 119.30487 11399 ft 295 kts 46°
2026-04-21 01:17 -4.88898 119.31937 11090 ft 287 kts 46°
2026-04-21 01:17 -4.87535 119.33334 10733 ft 282 kts 46°
2026-04-21 01:18 -4.86169 119.34734 10311 ft 280 kts 46°
2026-04-21 01:18 -4.84810 119.36126 9895 ft 278 kts 46°
2026-04-21 01:18 -4.83462 119.37508 9461 ft 276 kts 46°
2026-04-21 01:18 -4.82126 119.38877 9075 ft 272 kts 46°
2026-04-21 01:19 -4.80810 119.40227 8859 ft 271 kts 46°
2026-04-21 01:19 -4.79489 119.41583 8679 ft 272 kts 46°
2026-04-21 01:19 -4.78161 119.42945 8483 ft 273 kts 46°
2026-04-21 01:19 -4.76834 119.44304 8307 ft 273 kts 46°
2026-04-21 01:20 -4.75500 119.45670 8115 ft 273 kts 46°
2026-04-21 01:20 -4.74173 119.47029 7937 ft 273 kts 46°
2026-04-21 01:20 -4.72846 119.48387 7754 ft 272 kts 46°
2026-04-21 01:20 -4.71970 119.49283 7636 ft 272 kts 46°
2026-04-21 01:21 -4.70647 119.50638 7454 ft 271 kts 46°
2026-04-21 01:21 -4.69327 119.51989 7276 ft 271 kts 46°
2026-04-21 01:21 -4.68087 119.53399 7087 ft 270 kts 60°
2026-04-21 01:21 -4.67517 119.55157 6915 ft 266 kts 86°
2026-04-21 01:22 -4.67781 119.56967 6730 ft 264 kts 110°
2026-04-21 01:22 -4.68701 119.58554 6584 ft 266 kts 126°
2026-04-21 01:22 -4.69857 119.60018 6407 ft 268 kts 128°
2026-04-21 01:22 -4.71038 119.61467 6218 ft 268 kts 128°
2026-04-21 01:23 -4.72383 119.62736 6000 ft 269 kts 148°
2026-04-21 01:23 -4.74148 119.63359 5729 ft 271 kts 169°
2026-04-21 01:23 -4.76021 119.63621 5445 ft 273 kts 171°
2026-04-21 01:23 -4.77900 119.63856 5148 ft 271 kts 172°
2026-04-21 01:24 -4.79770 119.64092 4856 ft 271 kts 171°
2026-04-21 01:24 -4.81642 119.64336 4552 ft 271 kts 171°
2026-04-21 01:24 -4.83511 119.64587 4248 ft 271 kts 171°
2026-04-21 01:24 -4.85383 119.64841 3951 ft 271 kts 171°
2026-04-21 01:25 -4.87256 119.65096 3671 ft 273 kts 171°
2026-04-21 01:25 -4.89094 119.65343 3711 ft 258 kts 172°
2026-04-21 01:25 -4.90812 119.65118 3578 ft 247 kts 205°
2026-04-21 01:25 -4.92249 119.64268 3481 ft 233 kts 210°
2026-04-21 01:26 -4.93591 119.63468 3405 ft 215 kts 209°
2026-04-21 01:26 -4.94847 119.62738 3153 ft 207 kts 209°
2026-04-21 01:26 -4.96101 119.62013 2699 ft 209 kts 209°
2026-04-21 01:26 -4.97361 119.61282 2245 ft 209 kts 209°
2026-04-21 01:27 -4.98593 119.60569 1898 ft 199 kts 210°
2026-04-21 01:27 -4.99760 119.59891 1610 ft 188 kts 210°
2026-04-21 01:27 -5.00844 119.59259 1381 ft 176 kts 211°
2026-04-21 01:27 -5.01850 119.58675 1164 ft 162 kts 211°
2026-04-21 01:28 -5.02805 119.58120 970 ft 158 kts 212°
2026-04-21 01:28 -5.03764 119.57563 769 ft 161 kts 211°
2026-04-21 01:28 -5.04741 119.56997 553 ft 161 kts 210°
2026-04-21 01:28 -5.05706 119.56436 325 ft 160 kts 209°
2026-04-21 01:29 -5.06662 119.55884 99 ft 156 kts 208°
2026-04-21 01:29 -5.07560 119.55375 41 ft 132 kts 209°
2026-04-21 01:29 -5.08170 119.55014 38 ft 71 kts 209°
2026-04-21 01:29 -5.08468 119.54833 40 ft 37 kts 220°
2026-04-21 01:30 -5.08571 119.54696 37 ft 17 kts 239°
2026-04-21 01:30 -5.08608 119.54624 41 ft 9 kts 263°
2026-04-21 01:30 -5.08565 119.54590 40 ft 9 kts 357°
2026-04-21 01:30 -5.08512 119.54615 40 ft 9 kts 33°
2026-04-21 01:31 -5.08448 119.54652 40 ft 12 kts 28°
2026-04-21 01:31 -5.08363 119.54700 39 ft 16 kts 30°
2026-04-21 01:31 -5.08264 119.54757 40 ft 17 kts 29°
2026-04-21 01:31 -5.08176 119.54808 39 ft 12 kts 29°
2026-04-21 01:32 -5.08108 119.54845 40 ft 10 kts 19°
2026-04-21 01:32 -5.08053 119.54821 39 ft 9 kts 298°
2026-04-21 01:32 -5.08022 119.54764 40 ft 9 kts 299°
2026-04-21 01:32 -5.07975 119.54728 40 ft 9 kts 360°
2026-04-21 01:33 -5.07921 119.54754 40 ft 9 kts 31°
2026-04-21 01:33 -5.07870 119.54784 40 ft 8 kts 30°
2026-04-21 01:33 -5.07820 119.54814 40 ft 8 kts 30°
2026-04-21 01:33 -5.07774 119.54840 40 ft 6 kts 26°
2026-04-21 01:34 -5.07741 119.54822 40 ft 6 kts 298°
2026-04-21 01:34 -5.07722 119.54789 39 ft 4 kts 300°
2026-04-21 01:34 -5.07716 119.54778 40 ft 2 kts 299°
2026-04-21 01:34 -5.07715 119.54777 40 ft 0 kts 299°